Weather in Sernovodsk

Russia / Samara Oblast     53°55′19″N   51°15′20″E
temp.,
°C
wind,
m/s
gust,
m/s
humid.,
%
clouds,
%
prec.,
mm/h
press.,
hPa
HPBL,
m
21 january, fri
fri2101:00−14sse239791 0.1 102272
04:00−15sse229896 0.2 102236
07:00−18sse22100100 0.1 102223
10:00−15sse249784 0.1 1023107
13:00−12sse279691 0.0 1022194
16:00−13se239897 0.1 102248
19:00−17se2210099 0.0 102321
22:00−14se399895 0.1 1022174
22 january, sat
sat2201:00−12se4119599 0.1 1022277
04:00−11sse51295100 0.1 1022293
07:00−10se61294100 0.1 1022334
10:00−9sse61394100 0.1 1023385
13:00−8sse61393100 0.0 1023446
16:00−7sse61395100 0.4 1024491
19:00−7sse61393100 0.4 1025436
22:00−8sse61292100 0.4 1026341
23 january, sun
sun2301:00−8sse51193100 0.1 1028355
04:00−9se51191100 0.1 1029309
07:00−10se51189100 0.0 1030287
10:00−10se41086100 0.0 1032289
13:00−8se4983100 0.0 1033280
16:00−8se4886100 0.0 1034275
19:00−10se3888100 0.0 1036164
22:00−10ese2788100 0.0 1037185
24 january, mon
mon2401:00−12ese2291100 0.0 103827
04:00−13e1191100 0.0 103919
07:00−15e2291100 0.0 103914
10:00−13ese2986100 0.0 1040204
13:00−10se3879100 0.0 1040240
16:00−10ese2486100 0.0 1039114
19:00−13e2291100 0.0 103913
22:00−16e2191100 0.0 103910
25 january, tue
tue2501:00−17se2192100 0.0 103811
04:00−18ese1193100 0.0 10389
07:00−20ese1195100 0.0 10389
10:00−19ese1195100 0.0 103815
13:00−13sse2384100 0.0 1036103
16:00−14sse2292100 0.0 103610
19:00−19se119686 0.0 10369
22:00−21ese119797 0.0 10369